Time,TemperatureF,DewpointF,PressureIn,WindDirection,WindDirectionDegrees,WindSpeedMPH,WindSpeedGustMPH,Humidity,HourlyPrecipIn,Conditions,Clouds,dailyrainin,SoftwareType,DateUTC
2013-03-12 00:00:00,45.2,20.5,30.35,NW,317,1.0,4.0,37,0.00,,,0.00,VWS V14.01,2013-03-12 06:00:00,
2013-03-12 00:01:00,45.3,20.6,30.35,NW,319,1.0,4.0,37,0.00,,,0.00,VWS V14.01,2013-03-12 06:01:00,
2013-03-12 00:06:00,45.0,20.3,30.35,NW,314,1.0,2.0,37,0.00,,,0.00,VWS V14.01,2013-03-12 06:06:00,
2013-03-12 00:11:00,44.5,20.5,30.35,NW,326,1.0,3.0,38,0.00,,,0.00,VWS V14.01,2013-03-12 06:11:00,
2013-03-12 00:15:00,44.3,20.3,30.34,NW,324,3.0,5.0,38,0.00,,,0.00,VWS V14.01,2013-03-12 06:15:00,
2013-03-12 00:16:00,44.3,20.3,30.34,NW,319,1.0,4.0,38,0.00,,,0.00,VWS V14.01,2013-03-12 06:16:00,
2013-03-12 00:21:00,44.4,20.4,30.34,NW,325,1.0,5.0,38,0.00,,,0.00,VWS V14.01,2013-03-12 06:21:00,
2013-03-12 00:26:00,44.4,20.4,30.34,NW,319,2.0,5.0,38,0.00,,,0.00,VWS V14.01,2013-03-12 06:26:00,
2013-03-12 00:30:00,44.6,20.6,30.34,NNW,328,3.0,6.0,38,0.00,,,0.00,VWS V14.01,2013-03-12 06:30:00,
2013-03-12 00:31:00,44.5,20.5,30.34,NW,324,3.0,6.0,38,0.00,,,0.00,VWS V14.01,2013-03-12 06:31:00,
2013-03-12 00:36:00,44.5,20.5,30.34,NW,323,0.0,6.0,38,0.00,,,0.00,VWS V14.01,2013-03-12 06:36:00,
2013-03-12 00:42:00,44.3,20.3,30.34,NW,324,1.0,6.0,38,0.00,,,0.00,VWS V14.01,2013-03-12 06:42:00,
2013-03-12 00:45:00,43.9,20.6,30.34,NW,311,3.0,6.0,39,0.00,,,0.00,VWS V14.01,2013-03-12 06:45:00,
2013-03-12 00:47:00,44.0,20.6,30.34,NW,315,2.0,6.0,39,0.00,,,0.00,VWS V14.01,2013-03-12 06:47:00,
2013-03-12 00:52:00,43.7,20.4,30.34,WNW,298,3.0,6.0,39,0.00,,,0.00,VWS V14.01,2013-03-12 06:52:00,
2013-03-12 00:57:00,43.4,20.7,30.34,WNW,301,3.0,6.0,40,0.00,,,0.00,VWS V14.01,2013-03-12 06:57:00,
2013-03-12 01:00:00,43.1,20.4,30.34,NW,313,2.0,6.0,40,0.00,,,0.00,VWS V14.01,2013-03-12 07:00:00,
2013-03-12 01:02:00,43.2,20.5,30.34,WNW,299,0.0,6.0,40,0.00,,,0.00,VWS V14.01,2013-03-12 07:02:00,
2013-03-12 01:07:00,43.1,20.4,30.34,NW,309,2.0,5.0,40,0.00,,,0.00,VWS V14.01,2013-03-12 07:07:00,
2013-03-12 01:12:00,43.2,20.5,30.34,NW,309,1.0,7.0,40,0.00,,,0.00,VWS V14.01,2013-03-12 07:12:00,
2013-03-12 01:15:00,43.5,20.8,30.34,NW,311,4.0,8.0,40,0.00,,,0.00,VWS V14.01,2013-03-12 07:15:00,
2013-03-12 01:17:00,43.5,20.8,30.34,WNW,286,4.0,8.0,40,0.00,,,0.00,VWS V14.01,2013-03-12 07:17:00,
2013-03-12 01:22:00,44.0,20.6,30.34,NW,326,7.0,8.0,39,0.00,,,0.00,VWS V14.01,2013-03-12 07:22:00,
2013-03-12 01:27:00,44.5,21.1,30.34,NW,317,4.0,11.0,39,0.00,,,0.00,VWS V14.01,2013-03-12 07:27:00,
2013-03-12 01:30:00,45.0,20.9,30.34,NW,307,9.0,12.0,38,0.00,,,0.00,VWS V14.01,2013-03-12 07:30:00,
2013-03-12 01:32:00,45.0,20.9,30.34,NW,311,4.0,12.0,38,0.00,,,0.00,VWS V14.01,2013-03-12 07:32:00,
2013-03-12 01:37:00,45.1,20.4,30.34,WNW,292,4.0,9.0,37,0.00,,,0.00,VWS V14.01,2013-03-12 07:37:00,
2013-03-12 01:42:00,45.1,20.4,30.34,NW,320,7.0,10.0,37,0.00,,,0.00,VWS V14.01,2013-03-12 07:42:00,
2013-03-12 01:45:00,44.8,20.8,30.34,WNW,302,5.0,11.0,38,0.00,,,0.00,VWS V14.01,2013-03-12 07:45:00,
2013-03-12 01:47:00,44.8,20.8,30.34,WNW,291,9.0,11.0,38,0.00,,,0.00,VWS V14.01,2013-03-12 07:47:00,
2013-03-12 01:52:00,44.4,20.4,30.34,WNW,298,2.0,10.0,38,0.00,,,0.00,VWS V14.01,2013-03-12 07:52:00,
2013-03-12 01:57:00,44.0,20.0,30.34,WNW,283,1.0,12.0,38,0.00,,,0.00,VWS V14.01,2013-03-12 07:57:00,
2013-03-12 02:00:00,43.7,20.4,30.33,West,269,5.0,12.0,39,0.00,,,0.00,VWS V14.01,2013-03-12 08:00:00,
2013-03-12 02:02:00,43.8,20.5,30.33,West,281,5.0,12.0,39,0.00,,,0.00,VWS V14.01,2013-03-12 08:02:00,
2013-03-12 02:07:00,43.6,20.3,30.33,WNW,294,6.0,11.0,39,0.00,,,0.00,VWS V14.01,2013-03-12 08:07:00,
2013-03-12 02:12:00,43.6,20.3,30.33,West,276,8.0,15.0,39,0.00,,,0.00,VWS V14.01,2013-03-12 08:12:00,
2013-03-12 02:15:00,43.7,20.4,30.33,NW,306,1.0,15.0,39,0.00,,,0.00,VWS V14.01,2013-03-12 08:15:00,
2013-03-12 02:17:00,43.7,20.4,30.33,West,276,6.0,15.0,39,0.00,,,0.00,VWS V14.01,2013-03-12 08:17:00,
2013-03-12 02:22:00,43.8,20.5,30.33,West,274,10.0,14.0,39,0.00,,,0.00,VWS V14.01,2013-03-12 08:22:00,
2013-03-12 02:27:00,43.8,20.5,30.33,WSW,253,6.0,14.0,39,0.00,,,0.00,VWS V14.01,2013-03-12 08:27:00,
2013-03-12 02:30:00,43.7,21.0,30.33,NNW,337,4.0,14.0,40,0.00,,,0.00,VWS V14.01,2013-03-12 08:30:00,
2013-03-12 02:32:00,43.7,21.0,30.33,WSW,257,0.0,14.0,40,0.00,,,0.00,VWS V14.01,2013-03-12 08:32:00,
2013-03-12 02:37:00,43.4,20.7,30.33,West,264,1.0,4.0,40,0.00,,,0.00,VWS V14.01,2013-03-12 08:37:00,
2013-03-12 02:42:00,43.2,20.5,30.33,West,279,0.0,4.0,40,0.00,,,0.00,VWS V14.01,2013-03-12 08:42:00,
2013-03-12 02:45:00,42.7,20.1,30.33,East,88,2.0,4.0,40,0.00,,,0.00,VWS V14.01,2013-03-12 08:45:00,
2013-03-12 02:47:00,42.7,20.1,30.33,East,83,1.0,4.0,40,0.00,,,0.00,VWS V14.01,2013-03-12 08:47:00,
2013-03-12 02:52:00,42.4,20.4,30.33,East,91,0.0,6.0,41,0.00,,,0.00,VWS V14.01,2013-03-12 08:52:00,
2013-03-12 02:57:00,42.0,20.0,30.33,East,92,0.0,6.0,41,0.00,,,0.00,VWS V14.01,2013-03-12 08:57:00,
2013-03-12 03:00:00,41.8,20.4,30.34,East,95,0.0,6.0,42,0.00,,,0.00,VWS V14.01,2013-03-12 09:00:00,
2013-03-12 03:02:00,41.8,20.4,30.34,East,95,2.0,6.0,42,0.00,,,0.00,VWS V14.01,2013-03-12 09:02:00,
2013-03-12 03:07:00,42.4,21.0,30.33,ENE,69,0.0,3.0,42,0.00,,,0.00,VWS V14.01,2013-03-12 09:07:00,
2013-03-12 03:12:00,42.9,21.4,30.33,NE,40,3.0,11.0,42,0.00,,,0.00,VWS V14.01,2013-03-12 09:12:00,
2013-03-12 03:15:00,43.5,21.4,30.33,NNE,30,0.0,11.0,41,0.00,,,0.00,VWS V14.01,2013-03-12 09:15:00,
2013-03-12 03:17:00,43.5,21.4,30.33,NNE,29,0.0,11.0,41,0.00,,,0.00,VWS V14.01,2013-03-12 09:17:00,
2013-03-12 03:23:00,43.4,21.3,30.33,WSW,248,1.0,2.0,41,0.00,,,0.00,VWS V14.01,2013-03-12 09:23:00,
2013-03-12 03:27:00,44.0,21.8,30.33,NE,38,0.0,7.0,41,0.00,,,0.00,VWS V14.01,2013-03-12 09:27:00,
2013-03-12 03:30:00,44.5,21.7,30.33,NNW,327,2.0,9.0,40,0.00,,,0.00,VWS V14.01,2013-03-12 09:30:00,
2013-03-12 03:32:00,44.5,21.7,30.33,NNW,327,2.0,9.0,40,0.00,,,0.00,VWS V14.01,2013-03-12 09:32:00,
2013-03-12 03:38:00,44.9,22.1,30.33,WNW,302,7.0,12.0,40,0.00,,,0.00,VWS V14.01,2013-03-12 09:38:00,
2013-03-12 03:43:00,45.3,22.4,30.33,NW,317,3.0,12.0,40,0.00,,,0.00,VWS V14.01,2013-03-12 09:43:00,
2013-03-12 03:45:00,45.3,22.4,30.33,NW,310,5.0,12.0,40,0.00,,,0.00,VWS V14.01,2013-03-12 09:45:00,
2013-03-12 03:48:00,45.3,22.4,30.33,NW,310,5.0,12.0,40,0.00,,,0.00,VWS V14.01,2013-03-12 09:48:00,
2013-03-12 03:53:00,45.1,22.2,30.34,North,349,2.0,7.0,40,0.00,,,0.00,VWS V14.01,2013-03-12 09:53:00,
2013-03-12 03:58:00,45.0,22.1,30.34,NNW,329,0.0,11.0,40,0.00,,,0.00,VWS V14.01,2013-03-12 09:58:00,
2013-03-12 04:00:00,44.7,21.9,30.34,NNW,342,1.0,11.0,40,0.00,,,0.00,VWS V14.01,2013-03-12 10:00:00,
2013-03-12 04:03:00,44.7,21.9,30.34,NNW,333,2.0,2.0,40,0.00,,,0.00,VWS V14.01,2013-03-12 10:03:00,
2013-03-12 04:08:00,44.3,21.5,30.34,NW,306,0.0,4.0,40,0.00,,,0.00,VWS V14.01,2013-03-12 10:08:00,
2013-03-12 04:13:00,43.8,21.6,30.35,NW,323,0.0,4.0,41,0.00,,,0.00,VWS V14.01,2013-03-12 10:13:00,
2013-03-12 04:15:00,43.5,21.4,30.34,North,11,0.0,4.0,41,0.00,,,0.00,VWS V14.01,2013-03-12 10:15:00,
2013-03-12 04:18:00,43.5,21.4,30.34,North,11,0.0,0.0,41,0.00,,,0.00,VWS V14.01,2013-03-12 10:18:00,
2013-03-12 04:23:00,43.1,21.0,30.34,NNE,14,0.0,0.0,41,0.00,,,0.00,VWS V14.01,2013-03-12 10:23:00,
2013-03-12 04:28:00,42.6,21.1,30.35,NNE,14,0.0,0.0,42,0.00,,,0.00,VWS V14.01,2013-03-12 10:28:00,
2013-03-12 04:30:00,42.2,20.8,30.35,NNE,14,0.0,0.0,42,0.00,,,0.00,VWS V14.01,2013-03-12 10:30:00,
2013-03-12 04:33:00,42.2,20.8,30.35,NNE,13,0.0,0.0,42,0.00,,,0.00,VWS V14.01,2013-03-12 10:33:00,
2013-03-12 04:38:00,41.8,21.0,30.35,NNE,13,0.0,0.0,43,0.00,,,0.00,VWS V14.01,2013-03-12 10:38:00,
2013-03-12 04:43:00,41.3,21.0,30.35,NNE,13,0.0,0.0,44,0.00,,,0.00,VWS V14.01,2013-03-12 10:43:00,
2013-03-12 04:45:00,41.1,20.9,30.35,NNE,13,0.0,0.0,44,0.00,,,0.00,VWS V14.01,2013-03-12 10:45:00,
2013-03-12 04:48:00,41.1,20.9,30.35,NNE,13,0.0,0.0,44,0.00,,,0.00,VWS V14.01,2013-03-12 10:48:00,
2013-03-12 04:53:00,40.9,21.2,30.35,NNE,13,0.0,0.0,45,0.00,,,0.00,VWS V14.01,2013-03-12 10:53:00,
2013-03-12 04:58:00,41.3,21.0,30.35,NNE,13,0.0,0.0,44,0.00,,,0.00,VWS V14.01,2013-03-12 10:58:00,
2013-03-12 05:00:00,40.9,20.7,30.36,NNE,13,0.0,0.0,44,0.00,,,0.00,VWS V14.01,2013-03-12 11:00:00,
2013-03-12 05:03:00,40.9,20.7,30.36,NNE,13,0.0,0.0,44,0.00,,,0.00,VWS V14.01,2013-03-12 11:03:00,
2013-03-12 05:08:00,40.1,20.5,30.36,NNE,13,0.0,0.0,45,0.00,,,0.00,VWS V14.01,2013-03-12 11:08:00,
2013-03-12 05:13:00,39.8,20.2,30.36,NNE,13,0.0,0.0,45,0.00,,,0.00,VWS V14.01,2013-03-12 11:13:00,
2013-03-12 05:15:00,39.5,20.5,30.36,NNE,13,0.0,0.0,46,0.00,,,0.00,VWS V14.01,2013-03-12 11:15:00,
2013-03-12 05:18:00,39.5,20.5,30.36,NNE,13,0.0,0.0,46,0.00,,,0.00,VWS V14.01,2013-03-12 11:18:00,
2013-03-12 05:23:00,39.5,20.5,30.36,NW,310,0.0,0.0,46,0.00,,,0.00,VWS V14.01,2013-03-12 11:23:00,
2013-03-12 05:28:00,40.8,20.6,30.37,NW,311,0.0,0.0,44,0.00,,,0.00,VWS V14.01,2013-03-12 11:28:00,
2013-03-12 05:30:00,41.6,20.8,30.37,NW,311,0.0,0.0,43,0.00,,,0.00,VWS V14.01,2013-03-12 11:30:00,
2013-03-12 05:33:00,41.6,20.8,30.37,NW,311,0.0,0.0,43,0.00,,,0.00,VWS V14.01,2013-03-12 11:33:00,
2013-03-12 05:38:00,42.0,20.6,30.37,NW,315,0.0,3.0,42,0.00,,,0.00,VWS V14.01,2013-03-12 11:38:00,
2013-03-12 05:43:00,42.1,20.7,30.37,NW,310,1.0,6.0,42,0.00,,,0.00,VWS V14.01,2013-03-12 11:43:00,
2013-03-12 05:45:00,42.3,20.9,30.37,NW,310,0.0,6.0,42,0.00,,,0.00,VWS V14.01,2013-03-12 11:45:00,
2013-03-12 05:48:00,42.3,20.9,30.37,NW,310,0.0,2.0,42,0.00,,,0.00,VWS V14.01,2013-03-12 11:48:00,
2013-03-12 05:53:00,42.0,20.6,30.37,NW,310,1.0,2.0,42,0.00,,,0.00,VWS V14.01,2013-03-12 11:53:00,
2013-03-12 05:58:00,41.6,20.2,30.37,NW,310,1.0,2.0,42,0.00,,,0.00,VWS V14.01,2013-03-12 11:58:00,
2013-03-12 06:00:00,40.9,20.1,30.38,NW,310,1.0,2.0,43,0.00,,,0.00,VWS V14.01,2013-03-12 12:00:00,
2013-03-12 06:03:00,40.8,20.0,30.38,NW,310,0.0,1.0,43,0.00,,,0.00,VWS V14.01,2013-03-12 12:03:00,
2013-03-12 06:08:00,39.8,19.7,30.38,NW,310,1.0,2.0,44,0.00,,,0.00,VWS V14.01,2013-03-12 12:08:00,
2013-03-12 06:13:00,38.8,19.3,30.38,NW,310,0.0,2.0,45,0.00,,,0.00,VWS V14.01,2013-03-12 12:13:00,
2013-03-12 06:15:00,37.9,19.0,30.38,NW,310,0.0,2.0,46,0.00,,,0.00,VWS V14.01,2013-03-12 12:15:00,
2013-03-12 06:18:00,37.8,18.9,30.39,NW,310,0.0,0.0,46,0.00,,,0.00,VWS V14.01,2013-03-12 12:18:00,
2013-03-12 06:23:00,37.2,18.8,30.39,NW,310,0.0,0.0,47,0.00,,,0.00,VWS V14.01,2013-03-12 12:23:00,
2013-03-12 06:28:00,36.9,19.1,30.39,NW,310,0.0,0.0,48,0.00,,,0.00,VWS V14.01,2013-03-12 12:28:00,
2013-03-12 06:30:00,36.7,19.4,30.39,NW,310,0.0,0.0,49,0.00,,,0.00,VWS V14.01,2013-03-12 12:30:00,
2013-03-12 06:33:00,36.7,19.4,30.39,NW,310,0.0,0.0,49,0.00,,,0.00,VWS V14.01,2013-03-12 12:33:00,
2013-03-12 06:38:00,36.7,19.4,30.38,NW,310,0.0,0.0,49,0.00,,,0.00,VWS V14.01,2013-03-12 12:38:00,
2013-03-12 06:43:00,36.7,19.4,30.38,NW,310,0.0,0.0,49,0.00,,,0.00,VWS V14.01,2013-03-12 12:43:00,
2013-03-12 06:45:00,36.6,19.3,30.39,NW,310,0.0,0.0,49,0.00,,,0.00,VWS V14.01,2013-03-12 12:45:00,
2013-03-12 06:48:00,36.6,19.3,30.39,NW,310,0.0,0.0,49,0.00,,,0.00,VWS V14.01,2013-03-12 12:48:00,
2013-03-12 06:53:00,36.6,19.3,30.38,NW,310,0.0,0.0,49,0.00,,,0.00,VWS V14.01,2013-03-12 12:53:00,
2013-03-12 06:58:00,36.7,19.4,30.38,NW,310,0.0,0.0,49,0.00,,,0.00,VWS V14.01,2013-03-12 12:58:00,
2013-03-12 07:00:00,36.5,19.2,30.39,NW,310,0.0,0.0,49,0.00,,,0.00,VWS V14.01,2013-03-12 13:00:00,
2013-03-12 07:03:00,36.5,19.2,30.39,NW,310,0.0,0.0,49,0.00,,,0.00,VWS V14.01,2013-03-12 13:03:00,
2013-03-12 07:08:00,36.4,19.1,30.39,NW,310,0.0,0.0,49,0.00,,,0.00,VWS V14.01,2013-03-12 13:08:00,
2013-03-12 07:13:00,36.2,18.9,30.39,NW,310,0.0,0.0,49,0.00,,,0.00,VWS V14.01,2013-03-12 13:13:00,
2013-03-12 07:15:00,35.8,18.5,30.39,NW,310,0.0,2.0,49,0.00,,,0.00,VWS V14.01,2013-03-12 13:15:00,
2013-03-12 07:18:00,35.8,19.0,30.39,NW,310,1.0,1.0,50,0.00,,,0.00,VWS V14.01,2013-03-12 13:18:00,
2013-03-12 07:23:00,35.7,18.9,30.39,NW,310,1.0,2.0,50,0.00,,,0.00,VWS V14.01,2013-03-12 13:23:00,
2013-03-12 07:28:00,35.8,19.0,30.39,WNW,290,1.0,2.0,50,0.00,,,0.00,VWS V14.01,2013-03-12 13:28:00,
2013-03-12 07:30:00,35.8,19.0,30.39,WNW,289,0.0,2.0,50,0.00,,,0.00,VWS V14.01,2013-03-12 13:30:00,
2013-03-12 07:33:00,35.8,19.0,30.39,WNW,288,0.0,1.0,50,0.00,,,0.00,VWS V14.01,2013-03-12 13:33:00,
2013-03-12 07:38:00,35.7,18.9,30.40,WNW,289,0.0,1.0,50,0.00,,,0.00,VWS V14.01,2013-03-12 13:38:00,
2013-03-12 07:43:00,35.9,19.5,30.40,WNW,290,0.0,1.0,51,0.00,,,0.00,VWS V14.01,2013-03-12 13:43:00,
2013-03-12 07:45:00,36.1,19.7,30.40,WNW,289,0.0,1.0,51,0.00,,,0.00,VWS V14.01,2013-03-12 13:45:00,
2013-03-12 07:48:00,36.1,20.2,30.40,WNW,289,0.0,0.0,52,0.00,,,0.00,VWS V14.01,2013-03-12 13:48:00,
2013-03-12 07:53:00,36.4,19.5,30.40,WNW,289,0.0,0.0,50,0.00,,,0.00,VWS V14.01,2013-03-12 13:53:00,
2013-03-12 07:59:00,36.8,19.9,30.41,WNW,288,0.0,0.0,50,0.00,,,0.00,VWS V14.01,2013-03-12 13:59:00,
2013-03-12 08:00:00,37.2,20.3,30.41,WNW,290,0.0,0.0,50,0.00,,,0.00,VWS V14.01,2013-03-12 14:00:00,
2013-03-12 08:04:00,37.3,20.4,30.41,West,266,1.0,2.0,50,0.00,,,0.00,VWS V14.01,2013-03-12 14:04:00,
2013-03-12 08:09:00,38.1,20.6,30.41,West,266,0.0,2.0,49,0.00,,,0.00,VWS V14.01,2013-03-12 14:09:00,
2013-03-12 08:14:00,38.9,20.9,30.41,West,266,0.0,2.0,48,0.00,,,0.00,VWS V14.01,2013-03-12 14:14:00,
2013-03-12 08:15:00,39.5,21.0,30.41,West,266,0.0,3.0,47,0.00,,,0.00,VWS V14.01,2013-03-12 14:15:00,
2013-03-12 08:19:00,39.7,21.1,30.41,West,266,1.0,3.0,47,0.00,,,0.00,VWS V14.01,2013-03-12 14:19:00,
2013-03-12 08:24:00,40.5,21.4,30.42,West,265,0.0,3.0,46,0.00,,,0.00,VWS V14.01,2013-03-12 14:24:00,
2013-03-12 08:29:00,41.3,21.6,30.42,West,263,2.0,4.0,45,0.00,,,0.00,VWS V14.01,2013-03-12 14:29:00,
2013-03-12 08:30:00,41.9,21.6,30.42,West,264,1.0,4.0,44,0.00,,,0.00,VWS V14.01,2013-03-12 14:30:00,
2013-03-12 08:34:00,42.1,21.8,30.42,West,259,2.0,5.0,44,0.00,,,0.00,VWS V14.01,2013-03-12 14:34:00,
2013-03-12 08:39:00,42.9,22.0,30.42,West,267,2.0,5.0,43,0.00,,,0.00,VWS V14.01,2013-03-12 14:39:00,
2013-03-12 08:44:00,43.5,22.5,30.42,West,272,0.0,5.0,43,0.00,,,0.00,VWS V14.01,2013-03-12 14:44:00,
2013-03-12 08:45:00,44.3,22.7,30.42,West,273,0.0,5.0,42,0.00,,,0.00,VWS V14.01,2013-03-12 14:45:00,
2013-03-12 08:49:00,44.5,22.3,30.42,WNW,293,1.0,2.0,41,0.00,,,0.00,VWS V14.01,2013-03-12 14:49:00,
2013-03-12 08:54:00,44.7,21.9,30.43,WNW,294,0.0,2.0,40,0.00,,,0.00,VWS V14.01,2013-03-12 14:54:00,
2013-03-12 08:59:00,44.6,22.4,30.43,NNE,15,1.0,4.0,41,0.00,,,0.00,VWS V14.01,2013-03-12 14:59:00,
2013-03-12 09:00:00,45.0,22.7,30.43,NNW,342,7.0,7.0,41,0.00,,,0.00,VWS V14.01,2013-03-12 15:00:00,
2013-03-12 09:04:00,45.4,23.1,30.43,NNW,328,7.0,9.0,41,0.00,,,0.00,VWS V14.01,2013-03-12 15:04:00,
2013-03-12 09:09:00,46.0,23.0,30.43,NW,320,1.0,9.0,40,0.00,,,0.00,VWS V14.01,2013-03-12 15:09:00,
2013-03-12 09:14:00,46.5,22.9,30.43,NNW,342,5.0,9.0,39,0.00,,,0.00,VWS V14.01,2013-03-12 15:14:00,
2013-03-12 09:15:00,46.5,22.9,30.43,NNW,342,5.0,9.0,39,0.00,,,0.00,VWS V14.01,2013-03-12 15:15:00,
2013-03-12 09:19:00,46.6,23.0,30.43,NNW,346,5.0,7.0,39,0.00,,,0.00,VWS V14.01,2013-03-12 15:19:00,
2013-03-12 09:24:00,46.7,23.1,30.43,NNW,336,4.0,9.0,39,0.00,,,0.00,VWS V14.01,2013-03-12 15:24:00,
2013-03-12 09:29:00,46.9,23.3,30.43,NW,317,3.0,9.0,39,0.00,,,0.00,VWS V14.01,2013-03-12 15:29:00,
2013-03-12 09:30:00,47.0,23.3,30.43,NNW,339,5.0,9.0,39,0.00,,,0.00,VWS V14.01,2013-03-12 15:30:00,
2013-03-12 09:34:00,47.1,23.4,30.43,NNW,333,4.0,6.0,39,0.00,,,0.00,VWS V14.01,2013-03-12 15:34:00,
2013-03-12 09:39:00,47.6,23.3,30.43,NNW,344,2.0,8.0,38,0.00,,,0.00,VWS V14.01,2013-03-12 15:39:00,
2013-03-12 09:44:00,47.8,23.4,30.44,NW,319,9.0,9.0,38,0.00,,,0.00,VWS V14.01,2013-03-12 15:44:00,
2013-03-12 09:45:00,47.9,23.5,30.44,NW,323,3.0,9.0,38,0.00,,,0.00,VWS V14.01,2013-03-12 15:45:00,
2013-03-12 09:49:00,47.9,23.5,30.44,NW,317,4.0,4.0,38,0.00,,,0.00,VWS V14.01,2013-03-12 15:49:00,
2013-03-12 09:54:00,48.2,23.8,30.44,NW,305,5.0,10.0,38,0.00,,,0.00,VWS V14.01,2013-03-12 15:54:00,
2013-03-12 09:59:00,48.4,23.3,30.43,NW,315,2.0,10.0,37,0.00,,,0.00,VWS V14.01,2013-03-12 15:59:00,
2013-03-12 10:00:00,48.7,23.6,30.43,NW,323,0.0,10.0,37,0.00,,,0.00,VWS V14.01,2013-03-12 16:00:00,
2013-03-12 10:04:00,48.8,23.7,30.43,NNW,337,1.0,4.0,37,0.00,,,0.00,VWS V14.01,2013-03-12 16:04:00,
2013-03-12 10:09:00,49.1,24.0,30.43,NW,320,2.0,4.0,37,0.00,,,0.00,VWS V14.01,2013-03-12 16:09:00,
2013-03-12 10:14:00,49.3,24.1,30.43,NNW,341,1.0,4.0,37,0.00,,,0.00,VWS V14.01,2013-03-12 16:14:00,
2013-03-12 10:15:00,49.7,23.9,30.43,NW,316,1.0,4.0,36,0.00,,,0.00,VWS V14.01,2013-03-12 16:15:00,
2013-03-12 10:19:00,49.9,24.0,30.42,WNW,299,3.0,6.0,36,0.00,,,0.00,VWS V14.01,2013-03-12 16:19:00,
2013-03-12 10:24:00,50.0,24.1,30.42,NNW,335,0.0,6.0,36,0.00,,,0.00,VWS V14.01,2013-03-12 16:24:00,
2013-03-12 10:29:00,50.3,24.4,30.42,NNW,335,0.0,6.0,36,0.00,,,0.00,VWS V14.01,2013-03-12 16:29:00,
2013-03-12 10:30:00,50.7,24.7,30.42,WNW,298,1.0,6.0,36,0.00,,,0.00,VWS V14.01,2013-03-12 16:30:00,
2013-03-12 10:34:00,50.8,24.1,30.43,NW,319,2.0,4.0,35,0.00,,,0.00,VWS V14.01,2013-03-12 16:34:00,
2013-03-12 10:40:00,51.3,24.6,30.43,WNW,287,2.0,5.0,35,0.00,,,0.00,VWS V14.01,2013-03-12 16:40:00,
2013-03-12 10:45:00,51.8,24.3,30.43,WNW,300,2.0,7.0,34,0.00,,,0.00,VWS V14.01,2013-03-12 16:45:00,
2013-03-12 10:50:00,51.8,24.3,30.43,WNW,296,0.0,3.0,34,0.00,,,0.00,VWS V14.01,2013-03-12 16:50:00,
2013-03-12 10:55:00,51.9,24.4,30.43,NW,314,2.0,4.0,34,0.00,,,0.00,VWS V14.01,2013-03-12 16:55:00,
2013-03-12 11:00:00,52.2,24.7,30.43,WNW,290,0.0,6.0,34,0.00,,,0.00,VWS V14.01,2013-03-12 17:00:00,
2013-03-12 11:05:00,52.5,25.0,30.43,WNW,290,0.0,3.0,34,0.00,,,0.00,VWS V14.01,2013-03-12 17:05:00,
2013-03-12 11:10:00,53.1,24.8,30.43,NW,310,2.0,5.0,33,0.00,,,0.00,VWS V14.01,2013-03-12 17:10:00,
2013-03-12 11:15:00,53.3,25.0,30.43,NW,311,9.0,13.0,33,0.00,,,0.00,VWS V14.01,2013-03-12 17:15:00,
2013-03-12 11:20:00,53.9,24.7,30.43,West,261,7.0,9.0,32,0.00,,,0.00,VWS V14.01,2013-03-12 17:20:00,
2013-03-12 11:25:00,53.8,24.6,30.43,NW,323,4.0,11.0,32,0.00,,,0.00,VWS V14.01,2013-03-12 17:25:00,
2013-03-12 11:30:00,54.1,24.9,30.43,WNW,301,5.0,11.0,32,0.00,,,0.00,VWS V14.01,2013-03-12 17:30:00,
2013-03-12 11:35:00,54.6,24.6,30.43,WNW,283,8.0,8.0,31,0.00,,,0.00,VWS V14.01,2013-03-12 17:35:00,
2013-03-12 11:40:00,55.1,24.2,30.42,NW,307,5.0,10.0,30,0.00,,,0.00,VWS V14.01,2013-03-12 17:40:00,
2013-03-12 11:45:00,55.3,24.4,30.42,WNW,302,9.0,12.0,30,0.00,,,0.00,VWS V14.01,2013-03-12 17:45:00,
2013-03-12 11:50:00,55.2,24.3,30.42,NNW,334,4.0,9.0,30,0.00,,,0.00,VWS V14.01,2013-03-12 17:50:00,
2013-03-12 11:55:00,55.5,24.6,30.42,NNW,331,10.0,15.0,30,0.00,,,0.00,VWS V14.01,2013-03-12 17:55:00,
2013-03-12 12:00:00,55.7,24.8,30.42,NW,322,1.0,15.0,30,0.00,,,0.00,VWS V14.01,2013-03-12 18:00:00,
2013-03-12 12:05:00,56.2,25.2,30.41,NNE,18,1.0,10.0,30,0.00,,,0.00,VWS V14.01,2013-03-12 18:05:00,
2013-03-12 12:10:00,56.8,24.9,30.41,NW,316,4.0,10.0,29,0.00,,,0.00,VWS V14.01,2013-03-12 18:10:00,
2013-03-12 12:15:00,56.8,23.2,30.41,West,279,7.0,13.0,27,0.00,,,0.00,VWS V14.01,2013-03-12 18:15:00,
2013-03-12 12:20:00,57.7,24.0,30.41,WNW,288,15.0,15.0,27,0.00,,,0.00,VWS V14.01,2013-03-12 18:20:00,
2013-03-12 12:25:00,57.7,24.0,30.41,NNW,338,6.0,16.0,27,0.00,,,0.00,VWS V14.01,2013-03-12 18:25:00,
2013-03-12 12:30:00,58.0,24.2,30.41,NW,309,10.0,16.0,27,0.00,,,0.00,VWS V14.01,2013-03-12 18:30:00,
2013-03-12 12:35:00,57.7,24.0,30.41,NW,321,5.0,10.0,27,0.00,,,0.00,VWS V14.01,2013-03-12 18:35:00,
2013-03-12 12:40:00,58.2,24.4,30.40,NNW,330,7.0,10.0,27,0.00,,,0.00,VWS V14.01,2013-03-12 18:40:00,
2013-03-12 12:45:00,58.2,24.4,30.40,NNW,338,2.0,11.0,27,0.00,,,0.00,VWS V14.01,2013-03-12 18:45:00,
2013-03-12 12:46:00,58.6,24.8,30.40,NNW,339,5.0,11.0,27,0.00,,,0.00,VWS V14.01,2013-03-12 18:46:00,
2013-03-12 12:51:00,58.2,24.4,30.40,NNW,338,1.0,6.0,27,0.00,,,0.00,VWS V14.01,2013-03-12 18:51:00,
2013-03-12 12:56:00,58.7,24.8,30.40,NNW,348,6.0,12.0,27,0.00,,,0.00,VWS V14.01,2013-03-12 18:56:00,
2013-03-12 13:00:00,58.1,24.3,30.39,NW,306,1.0,12.0,27,0.00,,,0.00,VWS V14.01,2013-03-12 19:00:00,
2013-03-12 13:01:00,58.7,24.8,30.39,NNW,328,8.0,12.0,27,0.00,,,0.00,VWS V14.01,2013-03-12 19:01:00,
2013-03-12 13:06:00,58.5,24.7,30.40,NW,318,3.0,11.0,27,0.00,,,0.00,VWS V14.01,2013-03-12 19:06:00,
2013-03-12 13:11:00,58.5,24.7,30.39,North,355,7.0,13.0,27,0.00,,,0.00,VWS V14.01,2013-03-12 19:11:00,
2013-03-12 13:15:00,58.8,24.9,30.39,WNW,294,0.0,13.0,27,0.00,,,0.00,VWS V14.01,2013-03-12 19:15:00,
2013-03-12 13:16:00,58.9,25.0,30.39,WNW,294,1.0,13.0,27,0.00,,,0.00,VWS V14.01,2013-03-12 19:16:00,
2013-03-12 13:21:00,59.0,24.2,30.39,NW,311,7.0,15.0,26,0.00,,,0.00,VWS V14.01,2013-03-12 19:21:00,
2013-03-12 13:26:00,59.9,25.0,30.39,WNW,288,6.0,17.0,26,0.00,,,0.00,VWS V14.01,2013-03-12 19:26:00,
2013-03-12 13:30:00,60.0,25.0,30.38,NW,319,4.0,17.0,26,0.00,,,0.00,VWS V14.01,2013-03-12 19:30:00,
2013-03-12 13:31:00,60.1,24.2,30.38,NW,315,5.0,17.0,25,0.00,,,0.00,VWS V14.01,2013-03-12 19:31:00,
2013-03-12 13:36:00,59.6,24.7,30.38,NW,323,1.0,9.0,26,0.00,,,0.00,VWS V14.01,2013-03-12 19:36:00,
2013-03-12 13:41:00,59.8,24.9,30.37,NNW,329,4.0,14.0,26,0.00,,,0.00,VWS V14.01,2013-03-12 19:41:00,
2013-03-12 13:45:00,60.7,25.6,30.37,WSW,244,0.0,14.0,26,0.00,,,0.00,VWS V14.01,2013-03-12 19:45:00,
2013-03-12 13:46:00,60.4,24.4,30.37,WSW,246,3.0,14.0,25,0.00,,,0.00,VWS V14.01,2013-03-12 19:46:00,
2013-03-12 13:51:00,61.7,25.5,30.36,NW,306,4.0,9.0,25,0.00,,,0.00,VWS V14.01,2013-03-12 19:51:00,
2013-03-12 13:56:00,61.8,24.6,30.36,WNW,285,2.0,9.0,24,0.00,,,0.00,VWS V14.01,2013-03-12 19:56:00,
2013-03-12 14:00:00,61.5,24.4,30.36,West,261,0.0,11.0,24,0.00,,,0.00,VWS V14.01,2013-03-12 20:00:00,
2013-03-12 14:01:00,61.5,24.4,30.36,West,264,2.0,11.0,24,0.00,,,0.00,VWS V14.01,2013-03-12 20:01:00,
2013-03-12 14:06:00,61.6,24.5,30.35,NW,315,8.0,8.0,24,0.00,,,0.00,VWS V14.01,2013-03-12 20:06:00,
2013-03-12 14:11:00,62.2,25.0,30.35,WNW,291,2.0,12.0,24,0.00,,,0.00,VWS V14.01,2013-03-12 20:11:00,
2013-03-12 14:15:00,62.6,25.3,30.35,SW,215,6.0,12.0,24,0.00,,,0.00,VWS V14.01,2013-03-12 20:15:00,
2013-03-12 14:16:00,62.3,25.1,30.35,West,260,0.0,12.0,24,0.00,,,0.00,VWS V14.01,2013-03-12 20:16:00,
2013-03-12 14:21:00,63.7,26.3,30.34,SW,225,0.0,6.0,24,0.00,,,0.00,VWS V14.01,2013-03-12 20:21:00,
2013-03-12 14:26:00,64.0,25.5,30.34,WNW,287,2.0,11.0,23,0.00,,,0.00,VWS V14.01,2013-03-12 20:26:00,
2013-03-12 14:30:00,63.2,24.8,30.34,West,267,5.0,12.0,23,0.00,,,0.00,VWS V14.01,2013-03-12 20:30:00,
2013-03-12 14:31:00,63.6,25.1,30.34,WNW,282,7.0,11.0,23,0.00,,,0.00,VWS V14.01,2013-03-12 20:31:00,
2013-03-12 14:36:00,62.9,25.6,30.34,SSW,213,0.0,7.0,24,0.00,,,0.00,VWS V14.01,2013-03-12 20:36:00,
2013-03-12 14:41:00,64.5,25.9,30.34,SW,234,0.0,8.0,23,0.00,,,0.00,VWS V14.01,2013-03-12 20:41:00,
2013-03-12 14:45:00,66.0,26.1,30.33,South,174,1.0,9.0,22,0.00,,,0.00,VWS V14.01,2013-03-12 20:45:00,
2013-03-12 14:46:00,65.7,26.9,30.33,South,188,2.0,8.0,23,0.00,,,0.00,VWS V14.01,2013-03-12 20:46:00,
2013-03-12 14:51:00,66.2,26.3,30.33,SSW,196,0.0,8.0,22,0.00,,,0.00,VWS V14.01,2013-03-12 20:51:00,
2013-03-12 14:56:00,66.2,26.3,30.32,WSW,242,1.0,9.0,22,0.00,,,0.00,VWS V14.01,2013-03-12 20:56:00,
2013-03-12 15:00:00,66.1,26.2,30.32,SW,219,2.0,11.0,22,0.00,,,0.00,VWS V14.01,2013-03-12 21:00:00,
2013-03-12 15:01:00,65.8,25.9,30.32,SSW,211,7.0,11.0,22,0.00,,,0.00,VWS V14.01,2013-03-12 21:01:00,
2013-03-12 15:07:00,65.6,26.8,30.32,NW,309,0.0,7.0,23,0.00,,,0.00,VWS V14.01,2013-03-12 21:07:00,
2013-03-12 15:12:00,66.5,26.5,30.32,SSW,194,0.0,7.0,22,0.00,,,0.00,VWS V14.01,2013-03-12 21:12:00,
2013-03-12 15:15:00,65.2,25.4,30.31,NNW,327,3.0,8.0,22,0.00,,,0.00,VWS V14.01,2013-03-12 21:15:00,
2013-03-12 15:17:00,65.8,25.9,30.32,NNW,329,5.0,8.0,22,0.00,,,0.00,VWS V14.01,2013-03-12 21:17:00,
2013-03-12 15:22:00,64.3,25.7,30.31,WSW,240,2.0,10.0,23,0.00,,,0.00,VWS V14.01,2013-03-12 21:22:00,
2013-03-12 15:27:00,65.0,26.3,30.31,WSW,245,1.0,10.0,23,0.00,,,0.00,VWS V14.01,2013-03-12 21:27:00,
2013-03-12 15:30:00,66.5,26.5,30.31,SSW,198,0.0,10.0,22,0.00,,,0.00,VWS V14.01,2013-03-12 21:30:00,
2013-03-12 15:32:00,66.5,26.5,30.31,SSW,196,0.0,10.0,22,0.00,,,0.00,VWS V14.01,2013-03-12 21:32:00,
2013-03-12 15:37:00,65.5,25.7,30.31,ENE,71,0.0,4.0,22,0.00,,,0.00,VWS V14.01,2013-03-12 21:37:00,
2013-03-12 15:42:00,65.4,25.6,30.31,ESE,118,0.0,4.0,22,0.00,,,0.00,VWS V14.01,2013-03-12 21:42:00,
2013-03-12 15:45:00,66.5,26.5,30.31,SE,136,0.0,4.0,22,0.00,,,0.00,VWS V14.01,2013-03-12 21:45:00,
2013-03-12 15:47:00,66.3,26.4,30.31,SE,134,0.0,4.0,22,0.00,,,0.00,VWS V14.01,2013-03-12 21:47:00,
2013-03-12 15:52:00,67.1,25.9,30.31,SW,219,7.0,9.0,21,0.00,,,0.00,VWS V14.01,2013-03-12 21:52:00,
2013-03-12 15:57:00,67.8,25.3,30.31,West,260,0.0,9.0,20,0.00,,,0.00,VWS V14.01,2013-03-12 21:57:00,
2013-03-12 16:00:00,67.3,24.9,30.31,WSW,257,1.0,9.0,20,0.00,,,0.00,VWS V14.01,2013-03-12 22:00:00,
2013-03-12 16:02:00,67.3,24.9,30.31,WSW,254,5.0,9.0,20,0.00,,,0.00,VWS V14.01,2013-03-12 22:02:00,
2013-03-12 16:07:00,66.0,23.8,30.31,WNW,285,5.0,7.0,20,0.00,,,0.00,VWS V14.01,2013-03-12 22:07:00,
2013-03-12 16:12:00,65.8,24.8,30.31,WSW,238,6.0,12.0,21,0.00,,,0.00,VWS V14.01,2013-03-12 22:12:00,
2013-03-12 16:15:00,66.1,25.1,30.31,South,190,8.0,12.0,21,0.00,,,0.00,VWS V14.01,2013-03-12 22:15:00,
2013-03-12 16:17:00,66.1,25.1,30.31,South,190,7.0,12.0,21,0.00,,,0.00,VWS V14.01,2013-03-12 22:17:00,
2013-03-12 16:22:00,66.5,25.4,30.31,SSW,213,4.0,8.0,21,0.00,,,0.00,VWS V14.01,2013-03-12 22:22:00,
2013-03-12 16:27:00,66.8,24.5,30.31,SSW,210,0.0,8.0,20,0.00,,,0.00,VWS V14.01,2013-03-12 22:27:00,
2013-03-12 16:30:00,66.7,25.6,30.31,SW,232,0.0,8.0,21,0.00,,,0.00,VWS V14.01,2013-03-12 22:30:00,
2013-03-12 16:33:00,66.7,25.6,30.31,SW,232,0.0,8.0,21,0.00,,,0.00,VWS V14.01,2013-03-12 22:33:00,
2013-03-12 16:38:00,66.8,24.5,30.31,WSW,257,0.0,6.0,20,0.00,,,0.00,VWS V14.01,2013-03-12 22:38:00,
2013-03-12 16:43:00,66.8,24.5,30.31,WSW,253,4.0,9.0,20,0.00,,,0.00,VWS V14.01,2013-03-12 22:43:00,
2013-03-12 16:45:00,66.8,24.5,30.31,WNW,290,6.0,11.0,20,0.00,,,0.00,VWS V14.01,2013-03-12 22:45:00,
2013-03-12 16:48:00,66.8,24.5,30.31,WNW,287,7.0,7.0,20,0.00,,,0.00,VWS V14.01,2013-03-12 22:48:00,
2013-03-12 16:53:00,66.0,23.8,30.31,NW,308,5.0,11.0,20,0.00,,,0.00,VWS V14.01,2013-03-12 22:53:00,
2013-03-12 16:58:00,65.6,23.5,30.31,West,281,3.0,12.0,20,0.00,,,0.00,VWS V14.01,2013-03-12 22:58:00,
2013-03-12 17:00:00,65.1,24.2,30.31,West,281,0.0,12.0,21,0.00,,,0.00,VWS V14.01,2013-03-12 23:00:00,
2013-03-12 17:03:00,65.1,24.2,30.30,West,281,3.0,3.0,21,0.00,,,0.00,VWS V14.01,2013-03-12 23:03:00,
2013-03-12 17:08:00,65.3,24.4,30.30,West,271,2.0,4.0,21,0.00,,,0.00,VWS V14.01,2013-03-12 23:08:00,
2013-03-12 17:13:00,66.1,23.9,30.30,West,275,3.0,10.0,20,0.00,,,0.00,VWS V14.01,2013-03-12 23:13:00,
2013-03-12 17:15:00,66.1,23.9,30.31,West,272,0.0,10.0,20,0.00,,,0.00,VWS V14.01,2013-03-12 23:15:00,
2013-03-12 17:18:00,66.1,23.9,30.31,West,272,0.0,0.0,20,0.00,,,0.00,VWS V14.01,2013-03-12 23:18:00,
2013-03-12 17:23:00,66.3,24.1,30.31,WNW,287,2.0,7.0,20,0.00,,,0.00,VWS V14.01,2013-03-12 23:23:00,
2013-03-12 17:28:00,66.5,24.2,30.30,NW,317,2.0,7.0,20,0.00,,,0.00,VWS V14.01,2013-03-12 23:28:00,
2013-03-12 17:30:00,66.3,24.1,30.30,WNW,300,10.0,11.0,20,0.00,,,0.00,VWS V14.01,2013-03-12 23:30:00,
2013-03-12 17:33:00,66.3,24.1,30.30,NW,317,6.0,10.0,20,0.00,,,0.00,VWS V14.01,2013-03-12 23:33:00,
2013-03-12 17:38:00,65.6,23.5,30.30,NNW,338,2.0,10.0,20,0.00,,,0.00,VWS V14.01,2013-03-12 23:38:00,
2013-03-12 17:43:00,65.7,23.6,30.30,SW,235,3.0,10.0,20,0.00,,,0.00,VWS V14.01,2013-03-12 23:43:00,
2013-03-12 17:45:00,65.8,23.6,30.30,West,281,4.0,10.0,20,0.00,,,0.00,VWS V14.01,2013-03-12 23:45:00,
2013-03-12 17:48:00,65.8,23.6,30.30,WNW,300,4.0,7.0,20,0.00,,,0.00,VWS V14.01,2013-03-12 23:48:00,
2013-03-12 17:53:00,65.8,23.6,30.30,WNW,284,4.0,8.0,20,0.00,,,0.00,VWS V14.01,2013-03-12 23:53:00,
2013-03-12 17:58:00,65.8,23.6,30.30,NNW,331,5.0,8.0,20,0.00,,,0.00,VWS V14.01,2013-03-12 23:58:00,
2013-03-12 18:00:00,65.7,23.6,30.30,WNW,283,4.0,8.0,20,0.00,,,0.00,VWS V14.01,2013-03-13 00:00:00,
2013-03-12 18:03:00,65.7,23.6,30.30,WNW,291,1.0,5.0,20,0.00,,,0.00,VWS V14.01,2013-03-13 00:03:00,
2013-03-12 18:08:00,65.5,23.4,30.31,NNW,330,7.0,7.0,20,0.00,,,0.00,VWS V14.01,2013-03-13 00:08:00,
2013-03-12 18:13:00,64.8,24.0,30.31,North,355,5.0,10.0,21,0.00,,,0.00,VWS V14.01,2013-03-13 00:13:00,
2013-03-12 18:15:00,64.4,23.6,30.31,NNW,327,4.0,10.0,21,0.00,,,0.00,VWS V14.01,2013-03-13 00:15:00,
2013-03-12 18:18:00,64.4,23.6,30.31,NW,326,1.0,4.0,21,0.00,,,0.00,VWS V14.01,2013-03-13 00:18:00,
2013-03-12 18:23:00,64.5,23.7,30.31,NW,323,0.0,6.0,21,0.00,,,0.00,VWS V14.01,2013-03-13 00:23:00,
2013-03-12 18:28:00,64.6,23.8,30.31,WNW,298,0.0,9.0,21,0.00,,,0.00,VWS V14.01,2013-03-13 00:28:00,
2013-03-12 18:30:00,64.5,23.7,30.32,NW,313,2.0,9.0,21,0.00,,,0.00,VWS V14.01,2013-03-13 00:30:00,
2013-03-12 18:33:00,64.4,23.6,30.32,NW,313,6.0,7.0,21,0.00,,,0.00,VWS V14.01,2013-03-13 00:33:00,
2013-03-12 18:38:00,64.3,23.6,30.32,NNW,335,7.0,8.0,21,0.00,,,0.00,VWS V14.01,2013-03-13 00:38:00,
2013-03-12 18:43:00,63.9,23.2,30.33,NW,322,4.0,10.0,21,0.00,,,0.00,VWS V14.01,2013-03-13 00:43:00,
2013-03-12 18:45:00,63.5,24.0,30.33,NW,317,6.0,11.0,22,0.00,,,0.00,VWS V14.01,2013-03-13 00:45:00,
2013-03-12 18:48:00,63.4,23.9,30.33,NW,307,8.0,8.0,22,0.00,,,0.00,VWS V14.01,2013-03-13 00:48:00,
2013-03-12 18:53:00,63.0,23.6,30.33,NW,314,0.0,9.0,22,0.00,,,0.00,VWS V14.01,2013-03-13 00:53:00,
2013-03-12 18:58:00,62.7,23.3,30.33,NW,311,0.0,9.0,22,0.00,,,0.00,VWS V14.01,2013-03-13 00:58:00,
2013-03-12 19:00:00,62.2,22.9,30.33,NW,325,6.0,9.0,22,0.00,,,0.00,VWS V14.01,2013-03-13 01:00:00,
2013-03-12 19:03:00,62.1,22.8,30.33,NW,324,3.0,8.0,22,0.00,,,0.00,VWS V14.01,2013-03-13 01:03:00,
2013-03-12 19:08:00,61.7,22.5,30.34,NW,312,0.0,8.0,22,0.00,,,0.00,VWS V14.01,2013-03-13 01:08:00,
2013-03-12 19:13:00,61.2,23.1,30.34,NW,307,2.0,8.0,23,0.00,,,0.00,VWS V14.01,2013-03-13 01:13:00,
2013-03-12 19:15:00,60.8,22.8,30.34,NW,309,0.0,8.0,23,0.00,,,0.00,VWS V14.01,2013-03-13 01:15:00,
2013-03-12 19:18:00,60.7,22.7,30.34,NW,308,5.0,5.0,23,0.00,,,0.00,VWS V14.01,2013-03-13 01:18:00,
2013-03-12 19:23:00,60.3,22.4,30.34,NW,306,0.0,7.0,23,0.00,,,0.00,VWS V14.01,2013-03-13 01:23:00,
2013-03-12 19:28:00,59.8,23.0,30.35,WNW,300,6.0,7.0,24,0.00,,,0.00,VWS V14.01,2013-03-13 01:28:00,
2013-03-12 19:30:00,59.6,22.8,30.35,NW,305,2.0,7.0,24,0.00,,,0.00,VWS V14.01,2013-03-13 01:30:00,
2013-03-12 19:34:00,59.5,22.7,30.35,NW,304,0.0,3.0,24,0.00,,,0.00,VWS V14.01,2013-03-13 01:34:00,
2013-03-12 19:39:00,59.0,22.3,30.35,WNW,302,0.0,5.0,24,0.00,,,0.00,VWS V14.01,2013-03-13 01:39:00,
2013-03-12 19:44:00,59.0,22.3,30.36,WNW,303,0.0,5.0,24,0.00,,,0.00,VWS V14.01,2013-03-13 01:44:00,
2013-03-12 19:45:00,58.7,23.0,30.36,WNW,302,0.0,5.0,25,0.00,,,0.00,VWS V14.01,2013-03-13 01:45:00,
2013-03-12 19:49:00,58.6,22.9,30.36,WNW,302,0.0,0.0,25,0.00,,,0.00,VWS V14.01,2013-03-13 01:49:00,
2013-03-12 19:54:00,58.2,22.6,30.36,WNW,303,0.0,2.0,25,0.00,,,0.00,VWS V14.01,2013-03-13 01:54:00,
2013-03-12 19:59:00,57.8,22.2,30.36,WNW,298,3.0,5.0,25,0.00,,,0.00,VWS V14.01,2013-03-13 01:59:00,
2013-03-12 20:00:00,57.4,22.8,30.36,NW,306,4.0,5.0,26,0.00,,,0.00,VWS V14.01,2013-03-13 02:00:00,
2013-03-12 20:04:00,57.3,22.7,30.36,WNW,302,2.0,4.0,26,0.00,,,0.00,VWS V14.01,2013-03-13 02:04:00,
2013-03-12 20:09:00,56.9,22.4,30.36,WNW,299,0.0,6.0,26,0.00,,,0.00,VWS V14.01,2013-03-13 02:09:00,
2013-03-12 20:14:00,56.5,22.9,30.36,NW,304,0.0,7.0,27,0.00,,,0.00,VWS V14.01,2013-03-13 02:14:00,
2013-03-12 20:15:00,56.3,22.8,30.37,NW,306,3.0,7.0,27,0.00,,,0.00,VWS V14.01,2013-03-13 02:15:00,
2013-03-12 20:19:00,56.3,22.8,30.37,NW,304,4.0,5.0,27,0.00,,,0.00,VWS V14.01,2013-03-13 02:19:00,
2013-03-12 20:24:00,56.1,22.6,30.36,WNW,299,0.0,6.0,27,0.00,,,0.00,VWS V14.01,2013-03-13 02:24:00,
2013-03-12 20:29:00,55.8,22.3,30.37,WNW,298,4.0,8.0,27,0.00,,,0.00,VWS V14.01,2013-03-13 02:29:00,
2013-03-12 20:30:00,55.7,22.2,30.37,WNW,302,1.0,9.0,27,0.00,,,0.00,VWS V14.01,2013-03-13 02:30:00,
2013-03-12 20:34:00,55.7,22.3,30.37,NW,306,0.0,9.0,27,0.00,,,0.00,VWS V14.01,2013-03-13 02:34:00,
2013-03-12 20:39:00,55.9,22.4,30.37,WNW,302,4.0,9.0,27,0.00,,,0.00,VWS V14.01,2013-03-13 02:39:00,
2013-03-12 20:44:00,55.8,22.3,30.38,NW,309,0.0,9.0,27,0.00,,,0.00,VWS V14.01,2013-03-13 02:44:00,
2013-03-12 20:45:00,55.6,22.2,30.38,WNW,302,0.0,9.0,27,0.00,,,0.00,VWS V14.01,2013-03-13 02:45:00,
2013-03-12 20:49:00,55.5,22.1,30.38,NW,304,0.0,4.0,27,0.00,,,0.00,VWS V14.01,2013-03-13 02:49:00,
2013-03-12 20:54:00,55.2,21.8,30.38,NW,304,0.0,4.0,27,0.00,,,0.00,VWS V14.01,2013-03-13 02:54:00,
2013-03-12 20:59:00,54.8,22.3,30.39,WNW,303,0.0,4.0,28,0.00,,,0.00,VWS V14.01,2013-03-13 02:59:00,
2013-03-12 21:00:00,54.6,22.2,30.38,WNW,303,0.0,4.0,28,0.00,,,0.00,VWS V14.01,2013-03-13 03:00:00,
2013-03-12 21:04:00,54.6,22.2,30.39,WNW,303,0.0,0.0,28,0.00,,,0.00,VWS V14.01,2013-03-13 03:04:00,
2013-03-12 21:09:00,54.3,21.9,30.39,NW,304,0.0,0.0,28,0.00,,,0.00,VWS V14.01,2013-03-13 03:09:00,
2013-03-12 21:14:00,54.0,21.6,30.39,NW,304,0.0,0.0,28,0.00,,,0.00,VWS V14.01,2013-03-13 03:14:00,
2013-03-12 21:15:00,53.8,22.3,30.39,WNW,303,0.0,0.0,29,0.00,,,0.00,VWS V14.01,2013-03-13 03:15:00,
2013-03-12 21:19:00,53.7,22.2,30.40,NW,304,0.0,0.0,29,0.00,,,0.00,VWS V14.01,2013-03-13 03:19:00,
2013-03-12 21:24:00,53.3,21.9,30.40,NW,304,0.0,0.0,29,0.00,,,0.00,VWS V14.01,2013-03-13 03:24:00,
2013-03-12 21:29:00,53.0,21.6,30.40,WNW,303,0.0,0.0,29,0.00,,,0.00,VWS V14.01,2013-03-13 03:29:00,
2013-03-12 21:30:00,52.7,21.4,30.40,NW,304,0.0,0.0,29,0.00,,,0.00,VWS V14.01,2013-03-13 03:30:00,
2013-03-12 21:34:00,52.5,22.0,30.41,NW,304,0.0,0.0,30,0.00,,,0.00,VWS V14.01,2013-03-13 03:34:00,
2013-03-12 21:39:00,51.6,21.2,30.41,NW,304,0.0,0.0,30,0.00,,,0.00,VWS V14.01,2013-03-13 03:39:00,
2013-03-12 21:44:00,50.7,20.4,30.41,WNW,303,0.0,0.0,30,0.00,,,0.00,VWS V14.01,2013-03-13 03:44:00,
2013-03-12 21:45:00,50.0,20.6,30.41,West,279,0.0,2.0,31,0.00,,,0.00,VWS V14.01,2013-03-13 03:45:00,
2013-03-12 21:49:00,49.6,19.5,30.41,West,279,0.0,0.0,30,0.00,,,0.00,VWS V14.01,2013-03-13 03:49:00,
2013-03-12 21:54:00,49.2,20.6,30.41,West,279,0.0,0.0,32,0.00,,,0.00,VWS V14.01,2013-03-13 03:54:00,
2013-03-12 21:59:00,49.1,20.5,30.41,West,279,0.0,0.0,32,0.00,,,0.00,VWS V14.01,2013-03-13 03:59:00,
2013-03-12 22:00:00,49.1,21.3,30.41,West,279,0.0,0.0,33,0.00,,,0.00,VWS V14.01,2013-03-13 04:00:00,
2013-03-12 22:05:00,49.2,20.6,30.41,West,279,0.0,0.0,32,0.00,,,0.00,VWS V14.01,2013-03-13 04:05:00,
2013-03-12 22:10:00,49.4,20.8,30.42,West,279,0.0,0.0,32,0.00,,,0.00,VWS V14.01,2013-03-13 04:10:00,
2013-03-12 22:15:00,49.5,20.9,30.42,West,279,0.0,0.0,32,0.00,,,0.00,VWS V14.01,2013-03-13 04:15:00,
2013-03-12 22:20:00,49.2,21.3,30.42,West,279,0.0,0.0,33,0.00,,,0.00,VWS V14.01,2013-03-13 04:20:00,
2013-03-12 22:25:00,49.0,21.2,30.42,West,279,0.0,0.0,33,0.00,,,0.00,VWS V14.01,2013-03-13 04:25:00,
2013-03-12 22:30:00,48.8,20.3,30.42,West,279,0.0,0.0,32,0.00,,,0.00,VWS V14.01,2013-03-13 04:30:00,
2013-03-12 22:35:00,48.9,21.1,30.42,West,279,0.0,0.0,33,0.00,,,0.00,VWS V14.01,2013-03-13 04:35:00,
2013-03-12 22:40:00,49.2,21.3,30.43,West,279,0.0,0.0,33,0.00,,,0.00,VWS V14.01,2013-03-13 04:40:00,
2013-03-12 22:45:00,49.6,21.0,30.43,West,279,0.0,0.0,32,0.00,,,0.00,VWS V14.01,2013-03-13 04:45:00,
2013-03-12 22:50:00,50.1,21.4,30.43,West,279,2.0,3.0,32,0.00,,,0.00,VWS V14.01,2013-03-13 04:50:00,
2013-03-12 22:55:00,50.3,21.6,30.43,West,279,0.0,3.0,32,0.00,,,0.00,VWS V14.01,2013-03-13 04:55:00,
2013-03-12 23:00:00,50.3,21.6,30.43,West,279,0.0,4.0,32,0.00,,,0.00,VWS V14.01,2013-03-13 05:00:00,
2013-03-12 23:05:00,50.3,21.6,30.43,West,279,0.0,0.0,32,0.00,,,0.00,VWS V14.01,2013-03-13 05:05:00,
2013-03-12 23:10:00,50.0,21.3,30.43,West,279,3.0,4.0,32,0.00,,,0.00,VWS V14.01,2013-03-13 05:10:00,
2013-03-12 23:15:00,49.5,20.9,30.43,West,279,0.0,4.0,32,0.00,,,0.00,VWS V14.01,2013-03-13 05:15:00,
2013-03-12 23:20:00,49.3,21.4,30.43,West,279,0.0,0.0,33,0.00,,,0.00,VWS V14.01,2013-03-13 05:20:00,
2013-03-12 23:25:00,49.5,21.6,30.43,West,279,0.0,0.0,33,0.00,,,0.00,VWS V14.01,2013-03-13 05:25:00,
2013-03-12 23:30:00,49.9,22.0,30.43,West,279,0.0,0.0,33,0.00,,,0.00,VWS V14.01,2013-03-13 05:30:00,
2013-03-12 23:35:00,49.9,21.2,30.43,West,279,0.0,2.0,32,0.00,,,0.00,VWS V14.01,2013-03-13 05:35:00,
2013-03-12 23:40:00,49.4,21.5,30.43,West,279,0.0,5.0,33,0.00,,,0.00,VWS V14.01,2013-03-13 05:40:00,
2013-03-12 23:45:00,48.8,21.0,30.43,West,279,0.0,5.0,33,0.00,,,0.00,VWS V14.01,2013-03-13 05:45:00,
2013-03-12 23:50:00,48.5,20.7,30.43,West,279,0.0,0.0,33,0.00,,,0.00,VWS V14.01,2013-03-13 05:50:00,
2013-03-12 23:55:00,48.2,21.2,30.43,West,279,0.0,3.0,34,0.00,,,0.00,VWS V14.01,2013-03-13 05:55:00,